Wind_Speed
99 97 93 93 90 88 83 80 77 77 75 73 70 69 68 63 64 59 55 52 49 45 49 48 41 39 41 41 42 46 44 42 45 45 44 47 48 47 50 54 56 56 55 58
108 97 97 99 98 92 88 83 79 78 75 72 72 72 72 67 62 61 64 60 56 49 54 57 55 48 49 52 54 54 55 52 51 53 51 52 53 57 59 59 59 60 64 66
107 107 100 96 98 97 93 89 83 81 75 75 72 74 72 68 68 66 62 59 57 60 61 63 64 63 59 61 64 64 60 59 59 57 56 58 61 63 64 62 60 63 66 71
105 108 107 98 94 95 94 90 87 82 82 78 75 72 73 73 72 68 67 67 64 64 66 68 70 68 66 62 60 61 65 67 67 65 59 61 63 67 71 68 68 69 73 77
110 106 108 104 98 90 92 90 93 89 86 82 77 75 75 73 73 74 70 67 64 68 70 68 68 70 69 67 65 68 68 70 69 65 67 67 68 71 71 75 79 77 79 83
126 108 108 106 105 102 96 94 89 88 88 87 83 80 75 76 74 71 71 71 73 74 74 76 75 77 77 74 71 73 73 74 75 73 77 78 79 80 81 78 79 83 85 90
128 115 106 107 105 103 100 95 94 88 91 87 83 85 77 80 77 72 70 73 75 71 73 76 77 76 77 76 77 79 77 78 79 84 88 90 89 89 85 83 88 92 94 97
132 127 112 102 109 101 103 100 96 93 90 88 87 84 81 83 81 79 74 74 75 77 77 75 75 77 78 80 81 80 81 83 83 85 87 91 89 92 92 88 92 97 97 97
137 129 119 108 102 104 101 100 93 90 90 87 86 85 83 85 84 82 78 78 79 78 80 83 82 83 81 80 80 83 86 91 92 91 90 92 95 95 93 97 100 98 97 103
138 134 127 109 103 104 101 96 94 90 86 84 83 88 85 84 87 88 86 84 82 80 82 83 84 86 86 83 86 91 93 92 95 95 96 96 94 97 100 98 98 98 105 105
138 139 128 109 105 96 93 95 96 96 88 83 80 80 82 81 81 79 78 78 78 81 83 82 89 87 91 91 90 90 93 95 98 99 100 100 98 98 95 101 105 105 107 110
134 135 131 126 113 100 95 94 96 95 91 92 87 84 81 81 83 83 82 82 83 86 87 87 87 85 84 90 93 95 95 95 95 97 95 96 100 101 104 106 109 111 110 112
128 132 129 131 125 120 112 107 99 98 97 95 92 90 86 86 87 84 85 87 87 88 89 90 93 96 97 97 91 89 91 93 97 101 102 103 104 107 109 112 113 114 119 118
121 123 127 126 125 118 117 116 110 98 99 103 102 99 94 90 91 90 89 90 90 91 92 92 94 95 96 94 94 98 100 101 102 102 105 107 109 114 116 118 120 120 119 126
112 115 118 126 124 120 120 120 119 114 106 100 97 101 96 95 93 95 93 92 93 95 94 94 95 96 98 99 101 102 102 105 105 109 113 117 119 119 119 121 124 128 129 132
100 106 111 114 120 119 122 120 123 117 112 108 105 105 99 96 97 97 100 100 98 98 98 99 99 100 102 103 103 106 108 110 113 115 118 118 118 123 127 128 130 134 133 135
92 94 95 101 109 117 116 111 111 114 113 112 112 107 105 102 101 101 99 98 97 100 102 104 105 106 107 107 108 109 110 111 114 118 121 121 123 125 128 132 135 135 132 131
90 90 91 96 99 102 107 112 111 110 112 112 115 113 112 111 107 105 104 104 104 103 101 105 106 106 107 110 111 112 114 115 118 119 123 126 128 132 133 132 131 132 135 143
93 92 91 94 96 94 92 100 107 112 111 111 114 115 104 114 115 109 111 114 112 111 111 112 114 116 118 117 118 119 122 124 125 125 123 123 124 126 126 130 134 140 146 146
89 89 88 89 90 87 87 91 96 104 107 106 108 114 119 99 92 106 110 111 109 111 114 116 116 118 120 118 116 117 115 115 119 123 124 124 128 133 139 145 147 148 148 141
80 83 85 87 86 84 83 84 89 90 97 108 110 111 115 117 115 104 95 96 101 104 105 109 113 113 113 113 113 114 117 120 123 128 133 138 142 145 144 140 138 135 136 132
73 75 80 83 84 84 84 84 84 86 88 95 105 112 114 114 115 116 117 116 116 116 118 118 118 117 117 115 117 119 124 130 134 134 133 131 129 129 129 128 129 127 125 122
69 70 73 76 80 82 82 82 82 82 83 84 88 96 106 113 119 123 122 120 121 126 123 120 120 123 126 129 130 124 120 118 119 119 121 122 124 123 123 121 119 115 109 100
63 66 69 70 70 73 75 77 79 82 85 88 90 88 92 98 104 107 110 115 121 125 129 129 123 119 116 113 112 113 114 115 116 117 117 116 115 113 110 104 100 96 92 89
55 56 60 65 65 67 71 74 77 80 84 88 89 91 95 96 96 98 100 103 106 108 106 105 105 106 108 108 110 109 109 109 109 109 107 103 95 90 88 86 84 82 84 86
37 41 44 51 57 63 65 68 72 76 78 80 82 85 88 89 90 93 95 95 96 95 97 98 99 98 97 98 100 100 99 96 92 86 82 79 76 75 76 78 81 84 87 90
Wind_Direction
214 216 222 221 217 217 219 222 223 225 228 229 234 234 234 235 233 241 242 246 249 244 240 244 241 244 245 250 259 270 271 277 282 282 277 277 281 283 287 293 296 298 297 300
216 216 219 222 223 220 219 222 225 224 226 227 229 230 235 236 237 242 243 247 252 243 243 248 244 248 253 259 265 268 269 278 283 282 282 281 284 287 292 294 294 296 301 303
213 215 217 217 221 224 221 221 225 225 227 226 227 231 234 239 241 242 246 250 253 251 247 244 249 254 258 265 269 272 272 272 283 281 282 286 289 292 290 291 295 298 300 302
213 214 216 218 219 218 225 226 226 229 227 228 231 231 234 239 243 245 250 253 257 257 258 257 252 257 262 269 274 276 273 276 280 281 282 285 288 292 294 291 295 298 299 301
210 212 217 218 218 219 221 224 228 230 232 231 232 234 235 241 245 246 248 251 254 256 257 258 258 260 266 271 274 276 278 278 281 280 284 288 291 296 294 296 296 298 298 299
214 212 215 219 221 224 225 228 227 228 233 235 236 235 235 240 242 245 248 252 254 253 256 256 256 261 267 271 274 279 283 284 284 286 286 287 290 295 297 296 295 296 296 298
216 217 219 219 222 222 227 229 230 229 230 232 235 233 230 239 241 244 250 255 256 255 256 258 261 266 268 271 275 278 280 282 284 284 284 286 287 290 291 292 294 295 295 294
219 220 219 220 224 222 225 228 232 234 235 235 234 233 236 239 241 245 248 251 255 257 260 260 263 267 268 272 275 277 277 278 282 284 284 285 289 288 288 289 293 294 294 294
219 220 221 220 221 223 225 227 228 230 233 235 236 236 237 238 241 246 245 248 254 259 261 262 268 268 271 274 277 278 277 278 278 279 282 284 286 285 287 289 290 293 293 294
219 221 220 218 217 219 224 227 229 230 232 236 239 242 246 245 245 244 246 250 253 257 260 263 267 269 270 273 273 273 274 276 276 279 280 282 283 281 284 288 287 286 290 292
219 222 223 216 216 218 223 228 232 233 231 232 237 241 243 245 247 249 250 253 257 258 259 260 259 262 267 272 273 273 273 276 278 278 279 285 285 287 283 287 290 291 293 295
220 222 223 219 216 216 217 225 229 231 234 236 235 241 243 244 245 247 250 252 254 253 252 254 259 261 268 270 270 274 276 280 279 279 278 278 285 287 287 290 291 293 294 293
220 221 223 223 223 222 222 224 226 231 233 235 233 237 238 240 241 245 248 247 250 253 256 260 262 263 264 269 272 272 271 270 272 275 280 284 284 287 289 290 291 292 292 294
221 221 224 225 225 223 225 228 228 225 231 233 235 236 239 242 242 245 247 247 251 253 255 256 259 262 265 266 266 269 273 273 275 277 280 283 287 287 288 289 290 291 290 293
223 222 222 226 227 225 225 227 229 228 227 230 233 236 239 244 246 248 248 248 250 251 253 256 260 262 263 266 270 271 273 276 278 280 282 284 286 287 288 288 290 291 291 292
223 225 224 225 228 228 228 229 231 232 232 235 235 239 243 242 248 247 249 249 250 252 254 256 259 262 264 266 268 272 274 276 278 279 281 282 282 285 288 288 288 291 293 294
224 226 227 229 229 232 231 229 230 233 232 231 237 240 241 244 244 246 248 249 252 254 255 256 259 262 265 267 269 270 273 275 278 280 282 283 283 283 285 288 290 293 294 294
222 223 227 229 229 230 231 232 232 232 233 234 236 242 241 244 245 245 251 250 253 255 257 259 262 264 263 266 268 271 272 274 275 276 279 281 282 286 289 289 289 291 291 291
220 224 226 228 231 232 232 233 233 234 234 235 234 238 245 244 246 249 249 249 253 254 257 260 262 263 263 265 267 270 273 274 275 279 284 285 285 288 288 289 288 288 292 295
223 224 227 230 232 233 233 234 233 233 234 237 238 238 240 244 248 251 254 256 259 260 261 264 265 265 265 268 272 274 276 278 280 281 284 283 283 283 285 288 290 293 294 295
224 227 228 230 233 234 234 236 238 238 235 235 238 240 241 245 249 250 249 252 257 261 262 263 263 265 268 271 274 277 279 281 280 280 282 283 285 288 290 290 292 295 295 296
224 227 229 233 235 235 235 235 237 238 240 239 238 240 243 245 247 251 255 257 256 255 258 262 263 265 267 270 271 274 276 279 282 283 284 286 287 289 291 292 293 293 295 297
224 226 228 231 235 238 240 241 241 241 243 244 244 244 245 247 249 249 251 254 258 260 265 268 270 272 274 276 278 279 280 281 283 285 287 289 290 291 291 292 293 295 296 295
227 228 230 233 235 238 242 244 245 247 247 246 246 247 247 247 248 251 254 256 259 262 264 266 269 271 273 275 276 278 281 283 286 287 288 289 289 291 293 293 293 294 295 297
228 229 231 234 237 240 241 242 243 245 247 248 250 251 253 255 256 257 257 258 260 263 267 271 272 274 276 277 279 282 284 284 285 286 287 290 292 290 292 293 295 296 296 297
230 234 233 234 231 233 237 240 242 244 247 249 250 251 253 256 258 259 262 265 267 270 271 273 274 276 279 280 280 281 282 284 287 289 288 289 290 292 295 296 297 297 297 297
Height
10602 10617 10633 10650 10658 10665 10678 10689 10700 10709 10721 10733 10741 10742 10749 10756 10763 10768 10773 10776 10780 10784 10788 10792 10792 10793 10796 10799 10801 10802 10802 10803 10804 10803 10802 10800 10799 10798 10797 10794 10791 10789 10786 10782
10590 10611 10617 10628 10641 10656 10667 10679 10690 10699 10710 10721 10729 10732 10737 10746 10753 10758 10764 10770 10774 10778 10780 10782 10784 10785 10788 10790 10793 10794 10794 10794 10795 10794 10792 10790 10788 10787 10786 10784 10781 10778 10773 10769
10580 10597 10602 10617 10631 10645 10658 10671 10677 10689 10697 10707 10716 10723 10730 10737 10744 10751 10756 10761 10766 10767 10769 10771 10773 10776 10778 10780 10782 10783 10784 10784 10784 10783 10781 10779 10777 10776 10774 10772 10769 10765 10760 10755
10562 10581 10591 10604 10618 10636 10648 10657 10666 10676 10684 10696 10705 10717 10722 10729 10735 10742 10748 10752 10755 10757 10758 10760 10763 10766 10768 10769 10770 10771 10773 10772 10772 10771 10769 10768 10766 10764 10762 10758 10754 10749 10744 10740
10555 10568 10581 10595 10611 10619 10637 10645 10655 10663 10672 10683 10693 10704 10716 10719 10727 10734 10737 10741 10744 10747 10749 10750 10752 10755 10757 10758 10758 10759 10759 10760 10759 10757 10756 10755 10753 10751 10748 10744 10740 10734 10729 10724
10540 10553 10562 10581 10590 10607 10624 10632 10645 10653 10659 10667 10683 10695 10708 10712 10714 10719 10725 10730 10734 10737 10738 10740 10741 10743 10746 10749 10748 10749 10748 10745 10744 10744 10743 10741 10739 10736 10732 10729 10724 10719 10715 10710
10523 10542 10552 10567 10580 10596 10612 10622 10629 10639 10645 10657 10672 10681 10704 10697 10702 10710 10714 10719 10723 10725 10727 10727 10730 10733 10734 10736 10735 10736 10735 10733 10733 10732 10730 10727 10724 10722 10719 10713 10709 10705 10700 10694
10508 10529 10540 10557 10571 10593 10600 10608 10617 10628 10640 10653 10660 10673 10687 10687 10694 10699 10706 10709 10711 10713 10714 10716 10717 10719 10721 10722 10721 10722 10722 10721 10719 10717 10715 10712 10709 10706 10702 10697 10693 10687 10682 10676
10494 10515 10531 10548 10563 10574 10587 10598 10607 10615 10626 10635 10647 10659 10669 10675 10682 10686 10692 10696 10699 10701 10702 10703 10703 10703 10707 10708 10708 10708 10707 10705 10703 10701 10700 10697 10694 10690 10686 10682 10676 10670 10663 10656
10484 10499 10512 10539 10546 10557 10576 10587 10595 10604 10615 10624 10634 10646 10654 10659 10666 10673 10679 10684 10686 10688 10688 10689 10690 10689 10690 10695 10695 10692 10690 10688 10687 10683 10683 10681 10678 10674 10669 10664 10657 10650 10643 10635
10468 10477 10512 10529 10534 10553 10570 10581 10583 10592 10603 10613 10622 10631 10639 10645 10651 10656 10663 10667 10671 10673 10675 10678 10675 10677 10674 10674 10675 10674 10672 10669 10668 10666 10663 10660 10657 10652 10647 10642 10636 10629 10622 10614
10452 10470 10493 10512 10529 10544 10556 10559 10570 10578 10593 10601 10609 10616 10624 10629 10636 10644 10648 10654 10657 10659 10662 10664 10664 10662 10658 10658 10657 10655 10652 10650 10647 10645 10642 10639 10636 10632 10625 10619 10612 10605 10597 10589
10436 10453 10470 10489 10510 10526 10537 10549 10559 10567 10577 10584 10594 10602 10609 10615 10622 10627 10633 10639 10643 10644 10646 10649 10648 10647 10646 10643 10641 10638 10636 10634 10630 10626 10623 10620 10615 10610 10604 10598 10590 10583 10574 10563
10419 10439 10457 10473 10495 10515 10526 10535 10547 10555 10559 10565 10576 10584 10593 10600 10606 10611 10617 10622 10624 10628 10631 10631 10630 10630 10630 10628 10626 10623 10620 10615 10611 10609 10606 10601 10596 10589 10582 10576 10567 10559 10550 10539
10409 10428 10443 10455 10473 10493 10503 10510 10523 10537 10542 10549 10559 10567 10580 10587 10593 10598 10603 10607 10610 10611 10612 10613 10614 10614 10613 10612 10610 10607 10603 10598 10595 10591 10586 10581 10576 10569 10561 10553 10543 10535 10526 10516
10396 10411 10429 10440 10455 10469 10481 10493 10511 10528 10540 10542 10547 10553 10563 10569 10575 10583 10586 10589 10592 10595 10597 10597 10598 10597 10596 10595 10592 10589 10585 10581 10577 10572 10567 10561 10554 10548 10538 10528 10520 10510 10499 10488
10392 10406 10419 10430 10442 10453 10470 10489 10498 10510 10522 10528 10531 10540 10546 10555 10563 10568 10572 10572 10573 10577 10581 10581 10579 10577 10575 10573 10570 10567 10564 10560 10556 10551 10545 10538 10531 10523 10515 10505 10494 10483 10471 10459
10379 10390 10402 10413 10426 10438 10459 10473 10485 10491 10502 10515 10523 10525 10532 10540 10547 10552 10551 10552 10556 10558 10560 10558 10556 10553 10552 10549 10548 10546 10543 10541 10536 10530 10523 10516 10509 10500 10491 10478 10466 10456 10445 10433
10364 10375 10390 10401 10414 10429 10445 10459 10469 10475 10484 10495 10506 10515 10517 10524 10528 10531 10533 10537 10538 10538 10538 10538 10535 10531 10527 10525 10526 10526 10525 10520 10516 10509 10502 10494 10484 10473 10462 10451 10440 10430 10417 10403
10358 10371 10384 10396 10404 10422 10435 10441 10449 10459 10474 10482 10489 10496 10501 10505 10510 10510 10514 10515 10517 10516 10516 10513 10509 10503 10504 10507 10509 10508 10504 10499 10493 10485 10477 10467 10457 10446 10434 10422 10411 10398 10386 10372
10356 10366 10377 10384 10395 10410 10420 10426 10434 10448 10457 10461 10468 10476 10482 10487 10489 10491 10493 10494 10495 10494 10490 10485 10478 10483 10489 10491 10490 10486 10482 10477 10468 10459 10450 10439 10428 10417 10407 10396 10383 10369 10358 10345
10349 10359 10369 10376 10386 10397 10405 10413 10423 10427 10437 10446 10452 10456 10461 10465 10466 10467 10467 10468 10472 10467 10457 10458 10462 10465 10470 10475 10471 10465 10458 10450 10441 10431 10422 10411 10401 10390 10378 10368 10357 10345 10331 10317
10339 10351 10359 10368 10375 10382 10392 10401 10409 10416 10423 10428 10432 10433 10435 10440 10443 10445 10445 10448 10445 10435 10439 10442 10443 10450 10453 10450 10444 10437 10429 10421 10412 10404 10395 10384 10374 10363 10354 10341 10330 10318 10305 10292
10333 10343 10350 10359 10368 10374 10380 10387 10393 10397 10401 10401 10403 10412 10415 10413 10415 10419 10428 10428 10428 10430 10428 10428 10433 10430 10427 10421 10416 10409 10402 10396 10388 10378 10369 10359 10350 10338 10327 10316 10303 10292 10281 10268
10320 10330 10340 10347 10356 10364 10367 10372 10374 10376 10378 10383 10390 10394 10396 10400 10406 10407 10407 10406 10407 10409 10414 10414 10410 10406 10402 10397 10390 10385 10378 10370 10363 10355 10346 10336 10326 10314 10303 10292 10281 10270 10260 10249
10311 10319 10329 10335 10342 10346 10351 10354 10356 10360 10364 10367 10369 10372 10374 10380 10385 10386 10388 10393 10395 10396 10393 10389 10385 10381 10377 10373 10366 10361 10354 10349 10341 10332 10322 10313 10304 10294 10283 10272 10262 10253 10240 10228